SCP
0 0 0 0 0 0 0 0 0 0 0 0 1 1 2 2 2 2 2 1 0 0 0 0 0 0 0 0 0 0 0 0 0 0 0 0 0 0 0 0 0 0 0 0
0 0 0 0 0 0 0 0 0 0 0 1 1 1 2 2 3 2 2 1 0 0 0 0 0 0 0 0 0 0 0 0 0 0 0 0 0 0 0 0 0 0 0 0
0 0 0 0 0 0 0 0 0 1 1 1 1 2 2 3 3 2 1 1 0 0 0 0 0 0 0 0 0 0 0 0 0 0 0 0 0 0 0 0 0 0 0 0
0 0 0 0 0 0 0 0 0 1 1 1 2 2 2 2 2 2 1 0 0 0 0 0 0 0 0 0 0 0 0 0 0 0 0 0 0 0 0 0 0 0 0 0
0 0 0 0 0 0 0 0 0 1 1 1 1 1 1 2 2 1 1 0 0 0 0 0 0 0 0 0 0 0 0 0 0 0 0 0 0 0 0 0 0 0 0 0
0 0 0 0 0 0 0 0 0 0 0 1 1 1 1 1 1 0 0 0 0 0 0 0 0 0 0 0 0 0 0 0 0 0 0 0 0 0 0 0 0 0 0 0
0 0 0 0 0 0 0 0 0 0 0 0 0 0 0 0 0 0 0 0 0 0 0 0 0 0 0 0 0 0 0 0 0 0 0 0 0 0 0 0 0 0 0 0
0 0 0 0 0 0 0 0 0 0 0 0 0 0 0 0 0 0 0 0 0 0 0 0 0 0 0 0 0 0 0 0 0 0 0 0 0 0 0 0 0 0 0 0
0 0 0 0 0 0 0 0 0 0 0 0 0 0 0 0 0 0 0 0 0 0 0 0 0 0 0 0 0 0 0 0 0 0 0 0 0 0 0 0 0 0 0 0
0 0 0 0 0 0 0 0 0 0 0 0 0 0 0 0 0 0 0 0 0 0 0 0 0 0 0 0 0 0 0 0 0 0 0 0 0 0 0 0 0 0 0 0
0 0 0 0 0 0 0 0 0 0 0 0 0 0 0 0 0 0 0 0 0 0 0 0 0 0 0 0 0 0 0 0 0 0 0 0 0 0 0 0 0 0 0 0
0 0 0 0 0 0 0 0 0 0 0 0 0 0 0 0 0 0 0 0 0 0 0 0 0 0 0 0 0 0 0 0 0 0 0 0 0 0 0 0 0 0 0 0
0 0 0 0 0 0 0 0 0 0 0 0 0 0 0 0 0 0 0 0 0 0 0 0 0 0 0 0 0 0 0 0 0 0 0 0 0 0 0 0 0 0 0 0
0 0 0 0 0 0 0 0 0 0 0 0 0 0 0 0 0 0 0 0 0 0 0 0 0 0 0 0 0 0 0 0 0 0 0 0 0 0 0 0 0 0 0 0
0 0 0 0 0 0 0 0 0 0 0 0 0 0 0 0 0 0 0 0 0 0 0 0 0 0 0 0 0 0 0 0 0 0 0 0 0 0 0 0 0 0 0 0
0 0 0 0 0 0 0 0 0 0 0 0 0 0 0 0 0 0 0 0 0 0 0 0 0 0 0 0 0 0 0 0 0 0 0 0 0 0 0 0 0 0 0 0
0 0 0 0 0 0 0 0 0 0 0 0 0 0 0 0 0 0 0 0 0 0 0 0 0 0 0 0 0 0 0 0 0 0 0 0 0 0 0 0 0 0 0 0
0 0 0 0 0 0 0 0 0 0 0 0 0 0 0 0 0 0 0 0 0 0 0 0 0 0 0 0 0 0 0 0 0 0 0 0 0 0 0 0 0 0 0 0
0 0 0 0 0 0 0 0 0 0 0 0 0 0 0 0 0 0 0 0 0 0 0 0 0 0 0 0 0 0 0 0 0 0 0 0 0 0 0 0 0 0 0 0
0 0 0 0 0 0 0 0 0 0 0 0 0 0 0 0 0 0 0 0 0 0 0 0 0 0 0 0 0 0 0 0 0 0 0 0 0 0 0 0 0 0 0 0
0 0 0 0 0 0 0 0 0 0 0 0 0 0 0 0 0 0 0 0 0 0 0 0 0 0 0 0 0 0 0 0 0 0 0 0 0 0 0 0 0 0 0 0
0 0 0 0 0 0 0 0 0 0 0 0 0 0 0 0 0 0 0 0 0 0 0 0 0 0 0 0 0 0 0 0 0 0 0 0 0 0 0 0 0 0 0 0
0 0 0 0 0 0 0 0 0 0 0 0 0 0 0 0 0 0 0 0 0 0 0 0 0 0 0 0 0 0 0 0 0 0 0 0 0 0 0 0 0 0 0 0
0 0 0 0 0 0 0 0 0 0 0 0 0 0 0 0 0 0 0 0 0 0 0 0 0 0 0 0 0 0 0 0 0 0 0 0 0 0 0 0 0 0 0 0
0 0 0 0 0 0 0 0 0 0 0 0 0 0 0 0 0 0 0 0 0 0 0 0 0 0 0 0 0 0 0 0 0 0 0 0 0 0 0 0 0 0 0 0
0 0 0 0 0 0 0 0 0 0 0 0 0 0 0 0 0 0 0 0 0 0 0 0 0 0 0 0 0 0 0 0 0 0 0 0 0 0 0 0 0 0 0 0
0 0 0 0 0 0 0 0 0 0 0 0 0 0 0 0 0 0 0 0 0 0 0 0 0 0 0 0 0 0 0 0 0 0 0 0 0 0 0 0 0 0 0 0
Wind_Speed
11 10 10 11 12 11 12 14 15 15 13 10 8 8 5 6 12 14 14 15 16 15 13 12 11 10 9 8 7 5 4 4 3 2 2 3 5 7 8 9 10 10 11 11
12 12 13 16 16 16 17 16 18 18 17 9 7 6 4 6 11 13 13 13 13 13 12 10 10 9 8 7 5 4 4 4 3 2 3 5 6 7 7 7 8 8 8 8
11 11 11 16 12 13 14 14 14 15 11 12 10 8 5 5 9 11 12 12 12 12 10 9 8 7 7 5 4 4 4 2 2 3 5 6 6 6 7 7 7 7 7 8
10 8 12 0 7 7 8 4 9 10 11 11 10 8 7 2 5 9 12 13 13 12 11 8 7 6 5 5 5 3 2 2 3 4 5 6 6 6 6 6 7 7 7 8
7 10 10 4 6 7 7 2 10 11 11 9 5 2 8 9 7 10 13 14 14 12 11 8 6 6 6 5 3 2 3 4 5 6 6 6 6 6 6 7 7 7 7 8
8 8 7 4 8 7 7 6 10 13 12 9 6 4 5 10 14 16 16 14 13 11 9 7 6 5 5 4 3 4 5 6 6 6 6 6 6 6 6 6 7 7 7 7
9 9 6 7 9 9 8 5 13 13 11 7 5 6 10 13 14 15 15 14 12 10 8 7 6 4 4 4 6 6 6 7 6 6 5 5 5 5 6 6 6 7 8 7
7 9 3 9 8 7 10 14 13 11 7 4 9 12 13 14 15 15 15 13 10 9 8 6 4 4 5 7 6 6 6 6 6 5 5 5 5 5 5 7 6 7 8 8
4 4 5 5 7 9 11 12 10 7 2 10 12 13 14 15 14 13 13 11 9 10 8 5 4 4 7 7 6 6 6 6 5 5 5 5 5 5 5 6 6 7 7 8
7 6 6 8 8 9 10 9 4 4 10 14 15 16 15 13 12 12 12 11 9 9 8 7 7 8 8 7 6 6 6 5 4 5 5 6 6 6 5 6 7 7 8 9
10 9 8 5 7 9 6 6 10 13 14 16 17 16 15 13 13 12 11 9 7 8 9 9 9 9 8 7 6 6 6 5 4 5 6 5 5 6 6 7 7 7 7 8
7 7 8 9 8 4 6 10 13 16 15 15 16 17 16 14 12 11 9 8 8 9 9 10 10 9 8 6 6 5 5 5 4 5 5 5 4 3 2 3 4 6 7 8
9 9 7 4 4 7 10 12 13 14 15 16 15 15 14 13 11 10 10 10 9 9 10 10 10 9 8 7 7 7 7 6 5 6 6 6 5 5 5 3 2 3 6 10
6 3 1 5 8 10 13 14 14 15 15 15 14 14 13 12 11 11 10 10 10 10 10 10 10 9 8 7 7 7 7 6 6 6 6 6 6 5 6 7 7 7 7 10
5 7 10 12 12 12 12 13 14 15 15 15 14 13 12 12 12 11 10 10 10 10 10 10 10 9 7 7 8 8 8 7 6 6 6 6 5 5 5 7 7 7 8 10
12 13 13 13 12 12 12 14 14 15 15 14 13 12 12 12 11 10 9 8 9 10 9 9 9 8 7 7 7 7 8 7 7 6 6 6 5 5 5 6 6 6 7 9
11 11 11 11 10 11 12 13 13 14 14 14 13 12 12 12 11 9 9 9 9 9 9 9 9 7 7 6 6 5 6 5 1 6 7 7 6 6 6 6 7 6 6 9
9 10 9 10 10 11 12 13 13 14 13 13 12 11 11 10 10 9 9 9 10 10 9 8 8 7 7 7 6 5 5 6 7 7 7 7 7 6 6 6 7 8 7 8
11 11 11 11 11 12 13 13 13 13 13 12 11 11 10 10 9 9 8 9 10 10 9 9 5 6 7 6 3 4 5 6 6 6 6 6 6 8 7 7 7 7 7 7
10 12 12 12 12 13 13 13 13 12 11 12 12 11 11 10 10 9 10 9 9 9 9 7 6 6 6 4 5 4 6 6 7 7 7 7 8 8 8 8 8 8 7 7
11 12 13 13 13 13 12 12 11 11 11 11 11 11 10 9 8 8 9 10 9 9 8 4 4 5 5 2 2 6 7 7 7 7 7 7 7 8 8 8 8 8 8 8
11 12 12 12 12 12 11 10 10 10 10 10 10 10 10 9 8 8 9 8 9 4 4 6 7 7 3 3 6 7 7 7 7 7 7 7 7 8 8 8 8 8 8 8
10 11 11 12 12 11 11 10 10 9 9 9 9 9 9 8 7 8 8 8 8 4 6 9 8 3 5 2 7 7 8 8 8 8 7 7 7 8 8 8 7 7 8 8
10 10 10 10 11 11 11 10 9 8 8 8 8 8 8 7 6 7 9 9 7 6 9 8 4 2 5 5 7 7 8 8 8 8 8 7 7 7 7 8 7 7 8 9
11 11 11 11 10 9 10 10 10 9 8 7 8 8 6 7 8 8 9 11 9 9 9 6 3 5 2 8 8 8 9 8 8 7 7 8 8 8 8 8 8 8 8 9
11 11 10 9 8 8 8 8 7 7 7 7 7 6 7 7 9 9 9 11 11 9 9 7 6 3 7 8 8 7 7 6 6 7 8 8 9 9 8 8 10 8 8 9
11 10 8 8 8 8 7 7 7 7 7 7 7 7 8 8 8 9 10 9 8 7 7 6 6 6 7 7 7 7 7 7 7 7 7 7 7 8 8 9 8 8 8 9
Wind_Direction
280 289 285 281 277 273 269 276 281 284 286 297 340 326 287 191 167 166 170 170 165 158 151 146 137 131 126 123 120 123 125 112 92 72 359 308 301 302 303 305 305 309 309 310
265 263 271 274 270 269 269 273 275 277 279 315 347 322 276 198 178 175 174 170 160 148 139 134 128 123 119 114 116 124 114 98 82 18 320 318 321 325 332 337 340 340 337 333
266 264 275 265 273 278 277 275 283 286 316 350 333 326 300 225 189 178 168 155 143 135 125 116 112 111 111 114 128 122 108 84 23 335 340 354 1 11 12 3 358 349 344 338
263 255 246 133 46 350 307 330 7 354 349 345 347 356 3 341 180 161 148 134 127 120 112 106 108 110 114 128 127 119 100 37 11 4 18 35 34 27 13 0 351 344 342 342
253 251 260 196 53 359 316 282 34 4 355 353 3 25 46 36 74 109 114 113 112 112 113 115 118 120 122 125 116 100 50 32 31 37 48 42 34 21 7 353 351 342 353 343
237 247 250 67 20 336 274 240 37 2 351 348 328 307 74 75 86 94 98 102 107 110 112 111 109 111 116 111 92 62 50 56 61 58 51 41 28 9 6 354 359 349 356 344
235 242 256 46 350 313 263 348 356 345 342 343 7 52 96 96 94 97 98 102 106 108 106 106 109 112 102 79 64 65 77 79 72 63 52 36 25 15 3 3 7 357 350 340
232 240 232 33 353 346 331 327 324 330 345 55 94 100 101 100 99 99 100 103 108 110 108 106 105 104 89 74 78 87 89 84 71 47 25 30 25 18 14 2 1 359 350 345
277 302 15 348 324 318 313 311 315 325 62 118 114 107 103 101 102 104 109 115 118 117 118 121 116 92 87 87 93 96 91 76 59 46 38 25 19 25 18 10 2 359 352 348
272 272 307 317 321 326 323 318 335 88 115 118 113 109 107 108 112 118 124 129 135 137 131 117 101 88 88 93 96 93 81 67 58 46 50 52 27 27 19 11 6 1 355 346
266 283 294 294 340 341 355 71 94 102 111 115 115 115 118 121 125 128 131 136 138 128 117 107 99 93 93 93 92 84 74 64 56 56 50 51 54 35 21 36 14 350 350 340
285 320 307 315 342 17 96 107 114 116 117 119 120 124 126 125 127 130 131 133 130 123 113 106 102 96 89 82 73 68 72 59 49 47 44 40 45 77 130 11 344 325 327 333
288 297 304 329 55 99 112 117 120 121 120 121 122 124 124 125 128 129 130 128 121 113 109 107 103 96 86 75 69 66 59 44 44 39 41 41 31 19 19 16 344 334 347 352
285 259 127 98 102 105 108 111 114 114 116 119 122 123 124 125 126 122 115 110 110 111 112 110 103 94 87 80 74 70 70 60 37 47 37 33 24 17 14 7 6 8 11 9
89 108 107 107 105 107 111 116 117 119 122 123 125 127 128 124 117 111 108 108 109 111 112 109 102 95 87 80 71 57 45 44 43 43 41 35 20 13 14 17 16 7 1 4
100 102 104 106 110 118 124 125 122 124 126 128 127 124 120 116 113 110 109 108 108 107 109 108 104 99 90 85 86 86 76 33 6 38 44 41 30 19 17 20 22 14 11 7
100 104 110 113 115 119 121 120 121 125 128 127 123 121 121 120 115 107 95 88 91 99 106 109 106 100 91 77 66 73 78 85 38 37 41 37 42 35 26 22 22 19 17 17
84 93 103 113 119 120 121 122 125 128 128 127 126 126 124 119 112 105 102 104 102 99 100 104 103 100 87 72 58 53 57 51 45 43 45 34 29 45 43 36 28 23 9 11
95 96 98 104 113 120 122 123 125 126 129 132 129 119 113 111 110 108 108 109 108 103 97 96 98 101 89 72 20 71 50 47 50 45 46 50 39 41 39 42 41 37 25 13
109 106 105 108 112 115 118 121 122 125 129 127 123 118 115 114 112 106 98 85 75 88 105 112 121 97 95 71 322 50 48 42 45 46 43 41 39 38 37 37 36 35 33 28
124 117 113 113 116 118 120 124 125 127 130 132 128 122 118 118 117 115 113 102 93 96 107 125 108 98 88 72 310 49 49 45 46 45 38 38 39 39 36 34 33 30 28 27
133 123 120 122 125 126 126 127 127 128 130 131 128 127 127 125 115 99 86 95 110 125 126 104 86 71 45 321 63 59 54 49 47 46 42 36 36 37 37 34 32 29 27 26
136 131 130 131 131 132 134 132 129 128 129 130 131 135 133 128 129 126 116 113 120 120 91 83 93 106 293 46 68 64 56 49 45 45 45 41 37 34 33 32 32 31 29 26
138 133 133 133 135 139 140 138 133 128 126 121 120 125 129 126 110 99 101 101 100 105 95 102 122 256 283 72 66 60 54 47 44 44 42 42 41 37 33 30 30 31 33 32
149 146 147 149 149 144 138 140 139 140 136 121 121 130 134 125 119 113 115 119 128 122 113 126 198 268 72 71 69 66 59 45 31 31 44 39 37 38 34 32 30 32 33 31
155 157 159 160 148 143 148 151 150 151 148 139 130 125 119 117 122 124 126 130 129 129 131 138 141 141 84 79 72 66 66 70 60 51 43 39 38 39 36 32 37 36 36 34
152 152 156 154 153 155 153 149 145 149 153 147 134 133 135 135 134 131 131 135 141 136 128 125 112 98 90 84 78 72 66 59 51 47 46 43 39 37 36 39 39 39 40 39